COSMOS 252 DEB

Satellite information

Favourite Embed

Satellite Type and Status

DEBRISIN ORBIT

Key statistics

Satellite COSMOS 252 DEB at a glance.

Uptime

20701

Days in orbit

Revolutions

≈ 13.4

Per day

Orbit

LEO

Low Earth Orbit

Inclination

62.2

Latest

Satellite identification and parameters

Extended collection of information and parameters for COSMOS 252 DEB.

Object identification

Identified? True

Debris? True

Object name: COSMOS 252 DEB

International designator: 1968-097AW

Object number (NORAD): 3784

Object ID (CCSDS): 3784

Country: COMMONWEALTH OF INDEPENDENT STATES (CIS)

Current information (Y/N): Y

RCS size: SMALL

Orbital parameters

Period: 107.852 minutes

Inclination: 62.2459 deg

SMA: 7505.486 km

Apoapsis: 1590.859 km

Periapsis: 663.842 km

RAAN: 210.934 deg

Eccentricy: 0.061756

Argument of periapsis: 343.4176 deg

Mean anomaly: 14.7407 deg

Mean motion: 13.35163865 rev/day

Mean motion (dot): 0.00001614 rev/day2

B* drag term: 0.0011271 1/REarth

Two-line elements (TLE)

Creation date: July 5, 2025, 5:45 p.m.

Reference frame: TEME

Reference center: EARTH

Epoch: July 5, 2025, 2:46 p.m. UTC

TLE line 0: 0 COSMOS 252 DEB

TLE line 1: 1 03784U 68097AW 25186.61530041 .00001614 00000-0 11271-2 0 9990

TLE line 2: 2 03784 62.2459 210.9340 0617560 343.4176 14.7407 13.35163865 23687

Live tracking on map

Real-time ground track for satellite COSMOS 252 DEB.

In-orbit conjunctions

A list of the most updated potential collisions computed for object COSMOS 252 DEB.

Target Orbit TCA Probability of collision Miss distance Type
ESSA 1 (OT-3) SSO 2025-02-17 05:30:15 0.000310172 93.0 (m) PAYLOAD
COSMOS 203 LEO 2025-01-23 21:28:58 0.0001054795 967.0 (m) PAYLOAD
FENGYUN 1C DEB SSO 2024-10-23 04:24:07 0.0001324165 179.0 (m) DEBRIS

Associated space launch

The I2P satellites were the first soviet coorbital ASAT system.

COSMOS 252 DEB was lifted into orbit during the mission ‘Tsiklon-2A | I2P 2’, on board a Tsiklon-2A space rocket.

The launch took place on Nov. 1, 1968, 12:27 a.m. from 90/20.

For more information about the launch, click the button.

Launch to space Tsiklon-2A | I2P 2
Tsiklon-2A | I2P 2

Agency: N/A

Status: Launch Successful

Launch date: Nov. 1, 1968, 12:27 a.m. UTC

Rocket: Tsiklon-2A

Launch pad: 90/20

Location: Baikonur Cosmodrome, Republic of Kazakhstan

...

Latest news about this satellite

There are no fresh news available about this satellite. Check back as we update our databases every day.


Newsletter sign-up

Weekly statistics, charts and insights to help you stay on top of the space industry.